Time,TemperatureF,DewpointF,PressureIn,WindDirection,WindDirectionDegrees,WindSpeedMPH,WindSpeedGustMPH,Humidity,HourlyPrecipIn,Conditions,Clouds,dailyrainin,SoftwareType,DateUTC
2013-05-25 00:02:00,50.0,-99.9,30.00,WNW,291,27.0,32.0,-999,-99.99,,,-99.99,,2013-05-25 07:02:00,
2013-05-25 00:11:00,50.0,-99.9,30.00,WNW,290,25.0,32.0,-999,-99.99,,,-99.99,,2013-05-25 07:11:00,
2013-05-25 00:22:00,50.0,-99.9,30.00,WNW,292,24.0,28.0,-999,-99.99,,,-99.99,,2013-05-25 07:22:00,
2013-05-25 00:32:00,50.0,-99.9,30.00,WNW,291,26.0,31.0,-999,-99.99,,,-99.99,,2013-05-25 07:32:00,
2013-05-25 00:42:00,50.0,-99.9,30.00,WNW,289,30.0,36.0,-999,-99.99,,,-99.99,,2013-05-25 07:42:00,
2013-05-25 00:52:00,50.0,-99.9,30.00,WNW,290,30.0,36.0,-999,-99.99,,,-99.99,,2013-05-25 07:52:00,
2013-05-25 01:02:00,50.0,-99.9,30.00,WNW,290,27.0,34.0,-999,-99.99,,,-99.99,,2013-05-25 08:02:00,
2013-05-25 01:11:00,50.0,-99.9,30.00,WNW,290,28.0,34.0,-999,-99.99,,,-99.99,,2013-05-25 08:11:00,
2013-05-25 01:23:00,50.0,-99.9,30.00,WNW,291,24.0,34.0,-999,-99.99,,,-99.99,,2013-05-25 08:23:00,
2013-05-25 01:32:00,50.0,-99.9,29.99,WNW,293,26.0,32.0,-999,-99.99,,,-99.99,,2013-05-25 08:32:00,
2013-05-25 01:42:00,50.0,-99.9,30.00,WNW,296,27.0,36.0,-999,-99.99,,,-99.99,,2013-05-25 08:42:00,
2013-05-25 01:52:00,50.0,-99.9,30.00,WNW,290,27.0,32.0,-999,-99.99,,,-99.99,,2013-05-25 08:52:00,
2013-05-25 02:02:00,50.0,-99.9,30.00,WNW,290,27.0,35.0,-999,-99.99,,,-99.99,,2013-05-25 09:02:00,
2013-05-25 02:11:00,50.0,-99.9,30.00,WNW,290,25.0,32.0,-999,-99.99,,,-99.99,,2013-05-25 09:11:00,
2013-05-25 02:22:00,50.0,-99.9,30.00,WNW,292,24.0,30.0,-999,-99.99,,,-99.99,,2013-05-25 09:22:00,
2013-05-25 02:33:00,50.0,-99.9,29.99,WNW,293,24.0,30.0,-999,-99.99,,,-99.99,,2013-05-25 09:33:00,
2013-05-25 02:43:00,50.0,-99.9,29.99,WNW,294,26.0,32.0,-999,-99.99,,,-99.99,,2013-05-25 09:43:00,
2013-05-25 02:53:00,50.0,-99.9,29.99,WNW,291,23.0,29.0,-999,-99.99,,,-99.99,,2013-05-25 09:53:00,
2013-05-25 03:03:00,50.0,-99.9,29.99,WNW,298,24.0,29.0,-999,-99.99,,,-99.99,,2013-05-25 10:03:00,
2013-05-25 03:13:00,50.0,-99.9,29.99,WNW,292,24.0,32.0,-999,-99.99,,,-99.99,,2013-05-25 10:13:00,
2013-05-25 03:23:00,50.0,-99.9,29.99,WNW,291,24.0,32.0,-999,-99.99,,,-99.99,,2013-05-25 10:23:00,
2013-05-25 03:33:00,50.0,-99.9,29.99,WNW,290,24.0,32.0,-999,-99.99,,,-99.99,,2013-05-25 10:33:00,
2013-05-25 03:42:00,50.0,-99.9,29.99,WNW,292,25.0,29.0,-999,-99.99,,,-99.99,,2013-05-25 10:42:00,
2013-05-25 03:52:00,50.0,-99.9,29.98,WNW,291,25.0,32.0,-999,-99.99,,,-99.99,,2013-05-25 10:52:00,
2013-05-25 04:03:00,50.0,-99.9,29.98,WNW,292,28.0,35.0,-999,-99.99,,,-99.99,,2013-05-25 11:03:00,
2013-05-25 04:12:00,49.0,-99.9,29.99,WNW,290,28.0,34.0,-999,-99.99,,,-99.99,,2013-05-25 11:12:00,
2013-05-25 04:22:00,50.0,-99.9,29.98,WNW,290,28.0,32.0,-999,-99.99,,,-99.99,,2013-05-25 11:22:00,
2013-05-25 04:32:00,49.0,-99.9,29.98,WNW,290,28.0,34.0,-999,-99.99,,,-99.99,,2013-05-25 11:32:00,
2013-05-25 04:42:00,49.0,-99.9,29.98,WNW,291,29.0,35.0,-999,-99.99,,,-99.99,,2013-05-25 11:42:00,
2013-05-25 04:52:00,49.0,-99.9,29.98,WNW,291,31.0,34.0,-999,-99.99,,,-99.99,,2013-05-25 11:52:00,
2013-05-25 05:02:00,49.0,-99.9,29.98,WNW,292,29.0,34.0,-999,-99.99,,,-99.99,,2013-05-25 12:02:00,
2013-05-25 05:12:00,50.0,-99.9,29.98,WNW,291,30.0,37.0,-999,-99.99,,,-99.99,,2013-05-25 12:12:00,
2013-05-25 05:22:00,50.0,-99.9,29.98,WNW,291,28.0,35.0,-999,-99.99,,,-99.99,,2013-05-25 12:22:00,
2013-05-25 05:32:00,49.0,-99.9,29.98,WNW,290,28.0,36.0,-999,-99.99,,,-99.99,,2013-05-25 12:32:00,
2013-05-25 05:42:00,49.0,-99.9,29.98,WNW,289,27.0,34.0,-999,-99.99,,,-99.99,,2013-05-25 12:42:00,
2013-05-25 05:52:00,49.0,-99.9,29.98,WNW,292,29.0,33.0,-999,-99.99,,,-99.99,,2013-05-25 12:52:00,
2013-05-25 06:02:00,49.0,-99.9,29.98,WNW,293,26.0,33.0,-999,-99.99,,,-99.99,,2013-05-25 13:02:00,
2013-05-25 06:11:00,49.0,-99.9,29.99,WNW,293,26.0,33.0,-999,-99.99,,,-99.99,,2013-05-25 13:11:00,
2013-05-25 06:22:00,49.0,-99.9,29.99,WNW,292,25.0,30.0,-999,-99.99,,,-99.99,,2013-05-25 13:22:00,
2013-05-25 06:32:00,49.0,-99.9,29.99,WNW,291,26.0,34.0,-999,-99.99,,,-99.99,,2013-05-25 13:32:00,
2013-05-25 06:42:00,49.0,-99.9,29.99,WNW,290,27.0,34.0,-999,-99.99,,,-99.99,,2013-05-25 13:42:00,
2013-05-25 06:52:00,49.0,-99.9,30.00,WNW,292,25.0,36.0,-999,-99.99,,,-99.99,,2013-05-25 13:52:00,
2013-05-25 07:02:00,49.0,-99.9,30.00,WNW,295,24.0,30.0,-999,-99.99,,,-99.99,,2013-05-25 14:02:00,
2013-05-25 07:11:00,50.0,-99.9,30.00,WNW,291,27.0,34.0,-999,-99.99,,,-99.99,,2013-05-25 14:11:00,
2013-05-25 07:22:00,50.0,-99.9,30.00,WNW,292,26.0,35.0,-999,-99.99,,,-99.99,,2013-05-25 14:22:00,
2013-05-25 07:32:00,50.0,-99.9,30.01,WNW,295,23.0,31.0,-999,-99.99,,,-99.99,,2013-05-25 14:32:00,
2013-05-25 07:42:00,50.0,-99.9,30.01,WNW,298,26.0,33.0,-999,-99.99,,,-99.99,,2013-05-25 14:42:00,
2013-05-25 07:52:00,50.0,-99.9,30.01,WNW,301,27.0,34.0,-999,-99.99,,,-99.99,,2013-05-25 14:52:00,
2013-05-25 08:02:00,50.0,-99.9,30.01,WNW,299,27.0,35.0,-999,-99.99,,,-99.99,,2013-05-25 15:02:00,
2013-05-25 08:12:00,50.0,-99.9,30.01,WNW,295,27.0,32.0,-999,-99.99,,,-99.99,,2013-05-25 15:12:00,
2013-05-25 08:22:00,50.0,-99.9,30.01,WNW,293,28.0,34.0,-999,-99.99,,,-99.99,,2013-05-25 15:22:00,
2013-05-25 08:33:00,50.0,-99.9,30.01,WNW,293,29.0,36.0,-999,-99.99,,,-99.99,,2013-05-25 15:33:00,
2013-05-25 08:43:00,50.0,-99.9,30.01,WNW,296,27.0,36.0,-999,-99.99,,,-99.99,,2013-05-25 15:43:00,
2013-05-25 08:53:00,51.0,-99.9,30.01,WNW,293,29.0,37.0,-999,-99.99,,,-99.99,,2013-05-25 15:53:00,
2013-05-25 09:03:00,51.0,-99.9,30.01,WNW,295,29.0,35.0,-999,-99.99,,,-99.99,,2013-05-25 16:03:00,
2013-05-25 09:12:00,51.0,-99.9,30.01,WNW,298,26.0,34.0,-999,-99.99,,,-99.99,,2013-05-25 16:12:00,
2013-05-25 09:23:00,51.0,-99.9,30.01,WNW,302,30.0,40.0,-999,-99.99,,,-99.99,,2013-05-25 16:23:00,
2013-05-25 09:33:00,51.0,-99.9,30.02,WNW,297,29.0,37.0,-999,-99.99,,,-99.99,,2013-05-25 16:33:00,
2013-05-25 09:42:00,51.0,-99.9,30.02,WNW,295,27.0,35.0,-999,-99.99,,,-99.99,,2013-05-25 16:42:00,
2013-05-25 09:52:00,51.0,-99.9,30.02,WNW,302,28.0,35.0,-999,-99.99,,,-99.99,,2013-05-25 16:52:00,
2013-05-25 10:03:00,51.0,-99.9,30.02,WNW,297,26.0,36.0,-999,-99.99,,,-99.99,,2013-05-25 17:03:00,
2013-05-25 10:11:00,51.0,-99.9,30.02,NW,305,27.0,34.0,-999,-99.99,,,-99.99,,2013-05-25 17:11:00,
2013-05-25 10:22:00,51.0,-99.9,30.02,WNW,303,25.0,32.0,-999,-99.99,,,-99.99,,2013-05-25 17:22:00,
2013-05-25 10:33:00,51.0,-99.9,30.03,NW,305,24.0,33.0,-999,-99.99,,,-99.99,,2013-05-25 17:33:00,
2013-05-25 10:42:00,51.0,-99.9,30.03,WNW,303,25.0,31.0,-999,-99.99,,,-99.99,,2013-05-25 17:42:00,
2013-05-25 10:52:00,51.0,-99.9,30.03,NW,304,25.0,33.0,-999,-99.99,,,-99.99,,2013-05-25 17:52:00,
2013-05-25 11:02:00,51.0,-99.9,30.03,NW,304,25.0,29.0,-999,-99.99,,,-99.99,,2013-05-25 18:02:00,
2013-05-25 11:12:00,51.0,-99.9,30.03,NW,305,23.0,31.0,-999,-99.99,,,-99.99,,2013-05-25 18:12:00,
2013-05-25 11:22:00,51.0,-99.9,30.03,NW,305,23.0,31.0,-999,-99.99,,,-99.99,,2013-05-25 18:22:00,
2013-05-25 11:32:00,51.0,-99.9,30.03,NW,305,23.0,31.0,-999,-99.99,,,-99.99,,2013-05-25 18:32:00,
2013-05-25 11:52:00,52.0,-99.9,30.04,WNW,303,23.0,30.0,-999,-99.99,,,-99.99,,2013-05-25 18:52:00,
2013-05-25 12:02:00,52.0,-99.9,30.05,WNW,301,22.0,28.0,-999,-99.99,,,-99.99,,2013-05-25 19:02:00,
2013-05-25 12:11:00,52.0,-99.9,30.05,WNW,299,20.0,26.0,-999,-99.99,,,-99.99,,2013-05-25 19:11:00,
2013-05-25 12:22:00,52.0,-99.9,30.06,WNW,299,19.0,26.0,-999,-99.99,,,-99.99,,2013-05-25 19:22:00,
2013-05-25 12:32:00,52.0,-99.9,30.06,WNW,298,19.0,26.0,-999,-99.99,,,-99.99,,2013-05-25 19:32:00,
2013-05-25 12:42:00,52.0,-99.9,30.06,WNW,303,20.0,24.0,-999,-99.99,,,-99.99,,2013-05-25 19:42:00,
2013-05-25 12:52:00,52.0,-99.9,30.06,NW,306,18.0,26.0,-999,-99.99,,,-99.99,,2013-05-25 19:52:00,
2013-05-25 13:02:00,52.0,-99.9,30.07,NW,311,18.0,23.0,-999,-99.99,,,-99.99,,2013-05-25 20:02:00,
2013-05-25 13:11:00,52.0,-99.9,30.06,NW,305,16.0,23.0,-999,-99.99,,,-99.99,,2013-05-25 20:11:00,
2013-05-25 13:22:00,52.0,-99.9,30.06,WNW,303,18.0,22.0,-999,-99.99,,,-99.99,,2013-05-25 20:22:00,
2013-05-25 13:32:00,52.0,-99.9,30.07,WNW,292,15.0,20.0,-999,-99.99,,,-99.99,,2013-05-25 20:32:00,
2013-05-25 13:42:00,52.0,-99.9,30.07,WNW,291,19.0,27.0,-999,-99.99,,,-99.99,,2013-05-25 20:42:00,
2013-05-25 13:52:00,52.0,-99.9,30.07,WNW,292,19.0,24.0,-999,-99.99,,,-99.99,,2013-05-25 20:52:00,
2013-05-25 14:02:00,52.0,-99.9,30.07,WNW,294,19.0,29.0,-999,-99.99,,,-99.99,,2013-05-25 21:02:00,
2013-05-25 14:11:00,52.0,-99.9,30.06,WNW,292,23.0,28.0,-999,-99.99,,,-99.99,,2013-05-25 21:11:00,
2013-05-25 14:22:00,52.0,-99.9,30.06,WNW,293,22.0,30.0,-999,-99.99,,,-99.99,,2013-05-25 21:22:00,
2013-05-25 14:33:00,52.0,-99.9,30.06,WNW,297,23.0,30.0,-999,-99.99,,,-99.99,,2013-05-25 21:33:00,
2013-05-25 14:43:00,52.0,-99.9,30.06,WNW,299,25.0,31.0,-999,-99.99,,,-99.99,,2013-05-25 21:43:00,
2013-05-25 14:53:00,52.0,-99.9,30.06,WNW,296,27.0,34.0,-999,-99.99,,,-99.99,,2013-05-25 21:53:00,
2013-05-25 15:03:00,53.0,-99.9,30.05,WNW,294,27.0,34.0,-999,-99.99,,,-99.99,,2013-05-25 22:03:00,
2013-05-25 15:13:00,53.0,-99.9,30.05,WNW,293,28.0,36.0,-999,-99.99,,,-99.99,,2013-05-25 22:13:00,
2013-05-25 15:23:00,52.0,-99.9,30.05,WNW,294,30.0,35.0,-999,-99.99,,,-99.99,,2013-05-25 22:23:00,
2013-05-25 15:33:00,52.0,-99.9,30.05,WNW,290,30.0,37.0,-999,-99.99,,,-99.99,,2013-05-25 22:33:00,
2013-05-25 15:42:00,53.0,-99.9,30.05,WNW,296,26.0,31.0,-999,-99.99,,,-99.99,,2013-05-25 22:42:00,
2013-05-25 15:52:00,53.0,-99.9,30.05,WNW,295,27.0,34.0,-999,-99.99,,,-99.99,,2013-05-25 22:52:00,
2013-05-25 16:02:00,52.0,-99.9,30.05,WNW,293,29.0,34.0,-999,-99.99,,,-99.99,,2013-05-25 23:02:00,
2013-05-25 16:12:00,53.0,-99.9,30.06,WNW,292,26.0,35.0,-999,-99.99,,,-99.99,,2013-05-25 23:12:00,
2013-05-25 16:22:00,53.0,-99.9,30.06,WNW,297,25.0,31.0,-999,-99.99,,,-99.99,,2013-05-25 23:22:00,
2013-05-25 16:32:00,53.0,-99.9,30.06,NW,304,23.0,33.0,-999,-99.99,,,-99.99,,2013-05-25 23:32:00,
2013-05-25 16:42:00,53.0,-99.9,30.06,WNW,296,22.0,30.0,-999,-99.99,,,-99.99,,2013-05-25 23:42:00,
2013-05-25 16:53:00,52.0,-99.9,30.05,WNW,296,24.0,31.0,-999,-99.99,,,-99.99,,2013-05-25 23:53:00,
2013-05-25 17:02:00,53.0,-99.9,30.05,WNW,290,22.0,26.0,-999,-99.99,,,-99.99,,2013-05-26 00:02:00,
2013-05-25 17:12:00,53.0,-99.9,30.05,WNW,284,23.0,30.0,-999,-99.99,,,-99.99,,2013-05-26 00:12:00,
2013-05-25 17:22:00,53.0,-99.9,30.05,WNW,292,24.0,32.0,-999,-99.99,,,-99.99,,2013-05-26 00:22:00,
2013-05-25 17:32:00,53.0,-99.9,30.05,WNW,285,24.0,29.0,-999,-99.99,,,-99.99,,2013-05-26 00:32:00,
2013-05-25 17:43:00,53.0,-99.9,30.04,WNW,287,22.0,30.0,-999,-99.99,,,-99.99,,2013-05-26 00:43:00,
2013-05-25 17:53:00,53.0,-99.9,30.04,WNW,284,27.0,32.0,-999,-99.99,,,-99.99,,2013-05-26 00:53:00,
2013-05-25 18:01:00,53.0,-99.9,30.04,WNW,283,26.0,35.0,-999,-99.99,,,-99.99,,2013-05-26 01:01:00,
2013-05-25 18:11:00,53.0,-99.9,30.04,WNW,283,26.0,32.0,-999,-99.99,,,-99.99,,2013-05-26 01:11:00,
2013-05-25 18:21:00,53.0,-99.9,30.04,WNW,282,27.0,34.0,-999,-99.99,,,-99.99,,2013-05-26 01:21:00,
2013-05-25 18:32:00,53.0,-99.9,30.04,WNW,282,29.0,35.0,-999,-99.99,,,-99.99,,2013-05-26 01:32:00,
2013-05-25 18:42:00,53.0,-99.9,30.04,West,281,30.0,36.0,-999,-99.99,,,-99.99,,2013-05-26 01:42:00,
2013-05-25 18:53:00,53.0,-99.9,30.04,West,279,29.0,36.0,-999,-99.99,,,-99.99,,2013-05-26 01:53:00,
2013-05-25 19:02:00,53.0,-99.9,30.04,WNW,283,26.0,34.0,-999,-99.99,,,-99.99,,2013-05-26 02:02:00,
2013-05-25 19:11:00,52.0,-99.9,30.04,WNW,286,28.0,36.0,-999,-99.99,,,-99.99,,2013-05-26 02:11:00,
2013-05-25 19:22:00,52.0,-99.9,30.04,WNW,283,30.0,36.0,-999,-99.99,,,-99.99,,2013-05-26 02:22:00,
2013-05-25 19:32:00,52.0,-99.9,30.04,WNW,288,30.0,40.0,-999,-99.99,,,-99.99,,2013-05-26 02:32:00,
2013-05-25 19:42:00,52.0,-99.9,30.04,WNW,286,31.0,39.0,-999,-99.99,,,-99.99,,2013-05-26 02:42:00,
2013-05-25 19:52:00,52.0,-99.9,30.04,WNW,286,30.0,36.0,-999,-99.99,,,-99.99,,2013-05-26 02:52:00,
2013-05-25 20:01:00,52.0,-99.9,30.04,WNW,291,30.0,34.0,-999,-99.99,,,-99.99,,2013-05-26 03:01:00,
2013-05-25 20:11:00,52.0,-99.9,30.05,WNW,293,30.0,41.0,-999,-99.99,,,-99.99,,2013-05-26 03:11:00,
2013-05-25 20:22:00,52.0,-99.9,30.05,WNW,292,29.0,38.0,-999,-99.99,,,-99.99,,2013-05-26 03:22:00,
2013-05-25 20:33:00,52.0,-99.9,30.05,WNW,291,28.0,34.0,-999,-99.99,,,-99.99,,2013-05-26 03:33:00,
2013-05-25 20:43:00,52.0,-99.9,30.06,WNW,295,24.0,35.0,-999,-99.99,,,-99.99,,2013-05-26 03:43:00,
2013-05-25 20:53:00,52.0,-99.9,30.06,WNW,291,28.0,35.0,-999,-99.99,,,-99.99,,2013-05-26 03:53:00,
2013-05-25 21:03:00,52.0,-99.9,30.06,WNW,290,28.0,33.0,-999,-99.99,,,-99.99,,2013-05-26 04:03:00,
2013-05-25 21:13:00,52.0,-99.9,30.06,WNW,291,21.0,28.0,-999,-99.99,,,-99.99,,2013-05-26 04:13:00,
2013-05-25 21:23:00,52.0,-99.9,30.06,WNW,293,19.0,25.0,-999,-99.99,,,-99.99,,2013-05-26 04:23:00,
2013-05-25 21:33:00,52.0,-99.9,30.07,WNW,293,17.0,26.0,-999,-99.99,,,-99.99,,2013-05-26 04:33:00,
2013-05-25 21:43:00,51.0,-99.9,30.07,WNW,294,16.0,20.0,-999,-99.99,,,-99.99,,2013-05-26 04:43:00,
2013-05-25 21:52:00,51.0,-99.9,30.07,WNW,290,18.0,23.0,-999,-99.99,,,-99.99,,2013-05-26 04:52:00,
2013-05-25 22:02:00,51.0,-99.9,30.07,WNW,285,19.0,23.0,-999,-99.99,,,-99.99,,2013-05-26 05:02:00,
2013-05-25 22:12:00,51.0,-99.9,30.08,WNW,287,18.0,23.0,-999,-99.99,,,-99.99,,2013-05-26 05:12:00,
2013-05-25 22:22:00,51.0,-99.9,30.08,WNW,285,19.0,23.0,-999,-99.99,,,-99.99,,2013-05-26 05:22:00,
2013-05-25 22:32:00,52.0,-99.9,30.08,WNW,287,20.0,25.0,-999,-99.99,,,-99.99,,2013-05-26 05:32:00,
2013-05-25 22:42:00,52.0,-99.9,30.08,WNW,284,22.0,26.0,-999,-99.99,,,-99.99,,2013-05-26 05:42:00,
2013-05-25 22:52:00,52.0,-99.9,30.08,WNW,289,24.0,29.0,-999,-99.99,,,-99.99,,2013-05-26 05:52:00,
2013-05-25 23:01:00,52.0,-99.9,30.08,WNW,293,24.0,30.0,-999,-99.99,,,-99.99,,2013-05-26 06:01:00,
2013-05-25 23:12:00,52.0,-99.9,30.08,WNW,290,22.0,27.0,-999,-99.99,,,-99.99,,2013-05-26 06:12:00,
2013-05-25 23:22:00,52.0,-99.9,30.08,WNW,286,21.0,30.0,-999,-99.99,,,-99.99,,2013-05-26 06:22:00,
2013-05-25 23:32:00,52.0,-99.9,30.08,WNW,289,21.0,25.0,-999,-99.99,,,-99.99,,2013-05-26 06:32:00,
2013-05-25 23:42:00,52.0,-99.9,30.08,WNW,287,21.0,27.0,-999,-99.99,,,-99.99,,2013-05-26 06:42:00,
2013-05-25 23:52:00,52.0,-99.9,30.08,WNW,287,19.0,26.0,-999,-99.99,,,-99.99,,2013-05-26 06:52:00,